Probability
0 0 0 0 0 0 0 0 0 0 0 0 0 0 0 0 0 0 0 0 0 0 0 0 0 0 0 0 0 0 0 0 0 0 0 0 0 0
0 0 0 0 0 0 0 0 0 0 0 0 0 0 0 0 0 0 0 0 0 0 0 0 0 0 0 0 0 0 0 0 0 0 0 0 0 0
0 0 0 0 0 0 0 0 0 0 0 0 0 0 0 0 0 0 0 0 0 0 0 0 0 0 0 0 0 0 0 0 0 0 0 0 0 0
0 0 0 0 0 0 0 0 0 0 0 0 0 0 0 0 0 0 0 0 0 0 0 0 0 0 0 0 0 0 0 0 0 0 0 0 0 0
0 0 0 0 0 0 0 0 0 0 0 0 0 0 0 0 0 0 0 0 0 0 0 0 0 0 0 0 0 0 0 0 0 0 0 0 0 0
0 0 0 0 0 0 0 0 0 0 0 0 0 0 0 0 0 0 0 0 0 0 0 0 0 0 0 0 0 0 0 0 0 0 0 0 0 0
0 0 0 0 0 0 0 0 0 0 0 0 0 0 0 0 0 0 0 0 0 0 0 0 0 0 0 0 0 0 0 0 0 0 0 0 0 0
0 0 0 0 0 0 0 0 0 0 0 0 0 0 0 0 0 0 0 0 0 0 0 0 0 0 0 0 0 0 0 0 0 0 0 0 0 0
0 0 0 0 0 0 0 0 0 0 0 0 0 0 0 0 0 0 0 0 0 0 0 0 0 0 0 0 0 0 0 0 0 0 0 0 0 0
0 0 0 0 0 0 0 0 0 0 0 0 0 0 0 0 0 0 0 0 0 0 0 0 0 0 0 0 0 0 0 0 0 0 0 0 0 0
0 0 0 0 0 0 0 0 0 0 0 0 0 0 0 0 0 0 0 0 0 0 0 0 0 0 0 0 0 0 0 0 0 0 0 0 0 0
0 0 0 0 0 0 0 0 0 0 0 0 0 0 0 0 0 0 0 0 0 0 0 0 0 0 0 0 0 0 0 0 0 0 0 0 0 0
0 0 0 0 0 0 0 0 0 0 0 0 0 0 0 0 0 0 0 0 0 0 0 0 0 0 0 0 0 0 0 0 0 0 0 0 0 0
0 0 0 0 0 0 0 0 0 0 0 0 0 0 0 0 0 0 0 0 0 0 0 0 0 0 0 0 0 0 0 0 0 0 0 0 0 0
0 0 0 0 0 0 0 0 0 0 0 0 0 0 0 0 0 0 0 0 0 0 0 0 0 0 0 0 0 0 0 0 0 0 0 0 0 0
0 0 0 0 0 0 0 0 0 0 0 0 0 0 0 0 0 0 0 0 0 0 0 0 0 0 0 0 0 0 0 0 0 0 0 0 0 0
0 0 0 0 0 0 0 0 0 0 0 0 0 0 0 0 0 0 0 0 0 0 0 0 0 0 0 0 0 0 0 0 0 0 0 0 0 0
0 0 0 0 0 0 0 0 0 0 0 0 0 0 0 0 0 0 0 0 0 0 0 0 0 0 0 0 0 0 0 0 0 0 0 0 0 0
0 0 0 0 0 0 0 0 0 0 0 0 0 0 0 0 0 0 0 0 0 0 0 0 0 0 0 0 0 0 0 0 0 0 0 0 0 0
0 0 0 0 0 0 0 0 0 0 0 0 0 0 0 0 0 0 0 0 0 0 0 0 0 0 0 0 0 0 0 0 0 0 0 0 0 0
0 0 0 0 0 0 0 0 0 0 0 0 0 0 0 0 0 0 0 0 0 0 0 0 0 0 0 0 0 0 0 0 0 0 0 0 0 0
0 0 0 0 0 0 0 0 0 0 0 0 0 0 0 0 0 0 0 0 0 0 0 0 0 0 0 0 0 0 0 0 0 0 0 0 0 0
0 0 0 0 0 0 0 0 0 0 0 0 0 0 0 0 0 0 0 0 0 0 0 0 0 0 0 0 0 0 0 0 0 0 0 0 0 0
Wind_Speed
5 5 4 3 3 3 3 4 4 3 4 4 3 3 3 3 7 4 4 12 17 17 18 19 19 20 20 21 21 21 21 22 22 22 22 23 23 23
4 5 4 3 3 3 3 3 4 4 5 4 4 4 4 5 9 5 5 15 16 18 19 19 20 20 20 21 21 21 22 22 22 22 22 22 22 22
4 5 5 4 3 3 3 3 4 4 6 5 3 3 4 5 6 5 6 6 7 17 19 20 20 20 20 21 21 21 22 22 22 22 22 22 22 22
5 5 5 4 4 4 4 4 4 5 5 7 4 3 5 5 6 6 6 6 5 15 19 20 20 20 20 21 21 21 21 21 21 21 21 21 21 22
6 6 5 5 5 4 4 5 4 4 5 5 5 3 4 4 4 5 6 6 7 11 15 17 18 19 20 21 21 21 20 20 20 20 20 20 21 21
4 5 5 6 6 5 5 5 4 4 4 5 5 4 4 4 3 4 5 4 6 7 10 12 15 18 19 20 20 20 20 19 19 19 20 19 19 20
3 4 4 6 8 6 5 4 4 4 4 4 5 4 4 3 4 4 6 6 6 5 5 6 7 6 8 14 17 18 19 18 19 19 19 20 20 20
4 3 3 5 7 9 10 9 7 5 5 4 4 5 6 5 5 5 5 6 5 3 3 5 4 6 6 5 13 18 18 18 18 19 19 19 19 19
3 3 2 3 5 3 7 9 8 11 11 6 6 6 6 5 5 6 6 6 7 4 3 5 4 5 6 8 17 17 17 17 17 18 18 18 18 18
2 3 3 3 3 4 3 4 5 6 8 5 5 6 6 6 5 5 6 6 5 4 3 5 3 4 6 6 13 14 15 16 17 17 17 17 18 18
1 1 2 3 7 8 4 4 5 5 8 11 12 10 12 12 10 4 3 4 5 3 2 3 3 4 4 5 7 12 15 16 17 17 17 17 17 16
0 1 3 4 8 8 3 3 5 5 4 4 5 7 6 8 11 4 2 4 4 4 2 2 3 3 5 3 3 5 7 12 15 16 16 16 16 8
1 1 2 7 8 9 7 3 7 6 2 2 3 4 4 3 4 3 3 3 4 4 3 2 2 2 3 5 4 4 4 5 6 8 12 15 16 11
1 2 3 6 7 8 7 8 10 8 2 2 3 3 3 4 4 4 4 4 5 6 6 4 3 3 3 5 6 4 4 4 4 5 5 11 12 14
0 3 4 6 6 5 7 9 7 3 2 2 3 3 3 4 3 3 4 4 4 5 5 4 4 4 4 5 6 5 5 4 4 4 5 6 6 6
2 3 5 6 4 5 6 5 3 3 3 3 3 3 3 3 3 2 3 3 3 4 4 4 4 4 4 6 6 7 5 5 5 5 6 6 5 5
1 1 1 2 2 2 2 3 3 3 3 3 3 3 3 3 3 3 2 2 2 3 5 4 4 4 7 5 4 5 5 5 5 5 6 7 6 5
2 1 1 2 2 3 3 3 3 3 3 3 3 3 3 3 4 3 2 2 3 3 4 4 4 4 4 4 6 5 4 4 5 6 4 5 7 5
2 1 1 2 3 3 3 3 3 3 3 3 3 3 3 3 3 3 3 3 3 3 4 3 2 2 3 5 6 4 4 5 5 5 4 4 6 7
1 1 2 2 3 3 3 3 3 3 3 3 3 3 3 3 3 3 3 3 3 3 4 3 2 2 3 4 5 5 8 6 5 6 5 5 6 9
2 2 2 3 3 3 3 3 4 4 4 3 3 3 3 3 3 3 3 6 4 3 4 4 4 7 3 3 4 5 5 8 8 6 5 5 5 4
2 3 3 3 3 3 3 3 4 4 4 3 3 3 3 3 4 4 3 3 3 3 4 4 5 4 1 2 4 6 6 6 8 11 9 7 4 4
3 3 3 3 3 3 3 4 4 4 3 3 3 3 3 3 3 3 3 3 3 4 4 4 3 2 2 3 4 4 6 6 5 5 5 9 11 11
Wind_Direction
191 191 195 197 189 190 182 173 182 254 276 265 269 269 260 258 277 277 270 291 301 304 304 302 302 301 301 301 300 299 299 298 298 297 296 296 296 297
184 188 200 198 193 190 192 195 191 204 251 252 248 257 269 277 284 283 274 293 300 302 302 300 300 300 300 300 300 298 298 298 298 297 298 298 297 298
188 194 209 194 194 197 193 199 207 200 246 266 247 258 261 267 281 280 274 273 280 294 298 299 299 300 301 302 302 300 300 299 298 298 298 299 299 300
199 198 213 199 206 205 203 213 218 213 228 266 271 261 255 260 266 275 280 279 271 289 295 298 299 301 303 305 304 302 301 301 300 299 298 299 299 299
197 202 210 199 218 219 217 223 227 230 226 249 272 263 265 267 277 277 276 279 281 286 293 295 296 299 303 305 305 304 305 304 303 301 300 300 300 300
200 206 207 206 219 223 226 229 229 232 234 248 266 271 265 265 262 274 285 271 278 284 284 287 292 301 304 306 307 306 305 305 304 302 300 301 302 301
209 216 218 224 232 233 234 228 221 230 237 248 263 272 271 271 265 259 276 282 273 262 269 276 286 287 293 298 302 301 301 303 303 302 304 304 304 303
213 227 235 240 253 264 269 267 255 246 245 245 257 264 269 262 264 267 275 287 286 254 258 276 270 276 278 274 290 298 302 305 305 307 308 306 306 304
206 218 240 252 269 267 280 288 287 284 278 270 262 262 267 266 268 274 269 272 276 276 273 277 265 272 276 288 299 301 306 309 310 309 308 308 307 307
203 212 230 255 268 273 251 263 265 271 278 275 253 260 263 267 260 268 276 280 274 267 245 268 271 269 285 286 296 302 312 316 315 314 312 312 311 312
221 227 241 248 280 294 283 271 277 276 284 288 290 295 300 306 306 301 297 295 293 278 237 253 278 286 282 278 289 305 315 319 319 318 317 318 316 316
263 272 284 291 296 304 284 264 277 277 281 296 303 308 308 306 310 306 276 283 287 285 267 263 279 307 303 282 278 293 304 311 319 322 322 321 319 317
225 264 276 302 309 310 308 278 288 307 301 291 290 291 293 292 291 282 257 249 264 263 267 267 271 263 267 295 293 281 285 296 307 309 318 321 321 320
231 250 277 311 319 320 319 315 320 331 333 309 300 294 291 287 284 283 275 260 250 259 271 263 257 255 274 288 290 293 295 289 292 297 303 317 321 322
280 319 329 333 335 331 326 327 334 337 314 304 296 289 281 278 286 293 290 290 289 277 274 256 249 258 257 271 284 291 306 302 298 304 307 308 304 307
25 356 355 352 352 337 334 337 336 311 310 292 288 285 291 292 292 291 292 309 316 309 302 285 270 257 259 262 269 283 289 292 305 310 307 301 296 290
86 33 4 348 339 330 325 318 315 317 318 307 300 301 304 307 303 305 299 309 303 300 307 311 299 274 253 253 269 274 283 286 288 303 310 308 299 292
45 16 326 317 307 306 308 309 307 308 308 308 306 303 303 302 302 304 302 300 297 294 294 299 319 329 328 287 237 262 278 281 294 302 299 303 302 301
38 333 302 298 296 297 296 293 292 296 299 298 298 300 300 298 299 302 306 306 301 296 294 297 309 322 326 313 300 262 272 295 303 304 296 289 292 298
346 291 286 288 289 291 292 292 292 297 296 293 292 293 294 296 299 301 303 297 297 301 305 304 292 283 274 287 294 292 292 288 291 298 299 296 282 289
301 293 286 285 286 286 286 288 287 286 287 286 285 288 289 285 288 291 295 304 309 300 299 295 284 306 291 286 291 291 291 298 298 289 293 301 303 303
287 287 288 286 286 283 283 286 287 286 285 277 277 281 281 277 281 286 289 293 291 286 284 287 299 312 305 282 289 294 298 306 312 311 300 292 301 308
278 280 281 284 282 279 277 280 281 282 279 274 274 277 279 277 276 280 283 282 288 295 299 303 312 311 288 277 286 291 300 307 310 318 310 319 319 309